User: anonymous   Login
Location: Columbia
(38.9520°N, 92.3340°W)
Time: 06:54:02
(UTC-06:00)
Language:

Iridium 52 - Orbit

View from above orbital plane
View from above orbital plane
View from above satellite
View from above satellite

Ground track
Ground track

The orbit data is extracted from the following two-line orbital elements,

1 25169U 98010A   16040.51996881  .00000088  00000-0  24370-4 0  9995
2 25169  86.3980 196.7002 0002023  92.5488 267.5939 14.34217112941020
Epoch (UTC): 09 February 2016 12:28:45
Eccentricity: 0.0002023
inclination: 86.3980°
perigee height: 776 km
apogee height: 779 km
right ascension of ascending node: 196.7002°
argument of perigee: 92.5488°
revolutions per day: 14.34217112
mean anomaly at epoch: 267.5939°
orbit number at epoch: 94102

The dashed part of the orbit path shows where the satellite is in the earth's shadow,  

DLR